Location: Unspecified
(0.0000°N, 0.0000°E)
Time: 22:34:05
(UTC+00:00)

S-56A Canister/Altair - Pass Details

Date: 08 October 2020
Orbit: 633 x 2499 km, 38.9° (Epoch: 27 October)

Event Time Altitude Azimuth Distance (km) Brightness Sun altitude
Rises 07:32:04 0° 220° (SW) 3,633 10.7 26.0°
Reaches altitude 10° 07:34:19 10° 217° (SW) 2,870 10.3 26.5°
Maximum altitude 07:41:22 64° 136° (SE) 1,518 9.9 28.3°
Drops below altitude 10° 07:52:12 10° 56° (ENE) 4,309 12.2 31.0°
Sets 07:56:19 0° 54° (NE) 5,569 12.5 32.0°
